SCP
0 0 0 0 0 0 0 0 0 0 0 0 0 0 0 0 0 -0 -0 -0 -0 -0 -0 -0 -0 0 -0 -0 0 0 0 0 0 0 0 0 0 0 0 0 0 0 0 0
0 0 0 0 0 0 0 0 0 0 0 0 0 0 0 0 0 0 0 0 -0 -0 -0 -0 -0 -0 0 0 -0 -0 -0 0 0 0 0 0 0 0 0 0 0 0 0 0
0 0 0 0 0 0 0 0 0 0 0 0 0 0 0 0 0 0 -0 0 -0 -0 -0 -0 -0 -0 -0 -0 -0 0 0 0 0 0 0 0 0 0 0 0 0 0 0 0
0 0 0 0 0 0 0 0 0 0 0 0 0 0 0 0 0 0 -0 -0 -0 -0 -0 -0 -0 -0 -0 -0 -0 -0 -0 -0 0 0 0 0 0 0 0 0 0 0 0 0
0 0 0 0 0 0 0 0 0 0 0 0 0 0 0 0 0 -0 -0 -0 -0 -0 -0 -0 -0 -0 -0 -0 -0 0 0 0 0 0 0 0 0 0 0 0 0 0 0 0
0 0 0 0 0 0 0 0 0 0 0 0 0 0 0 0 0 0 0 -0 -0 -0 -0 -0 -0 -0 -0 0 0 0 0 0 0 0 0 0 0 0 0 0 0 0 0 0
0 0 0 0 0 0 0 0 -0 0 0 0 0 0 0 0 0 0 0 0 0 0 0 0 -0 0 0 0 0 0 0 0 0 0 0 0 0 0 0 0 0 0 0 0
0 0 0 0 0 0 0 0 0 0 0 0 0 0 0 0 0 0 0 0 0 0 0 0 0 0 0 0 0 0 0 0 0 0 0 0 0 0 0 0 0 0 0 0
0 0 0 0 0 0 0 0 0 0 0 0 0 0 0 0 0 0 0 0 0 0 0 0 0 0 0 0 0 0 0 0 0 0 0 0 0 0 0 0 0 0 0 0
0 0 0 0 0 0 0 0 0 0 0 0 0 0 0 0 0 0 0 0 0 0 0 0 0 0 0 0 0 0 0 0 0 0 0 0 0 0 0 0 0 0 0 0
0 0 0 0 0 0 0 0 0 0 0 0 0 0 0 0 0 0 0 0 0 0 0 0 0 0 0 0 0 0 0 0 0 0 0 0 0 0 0 0 0 0 0 0
0 0 0 0 0 0 0 0 0 0 0 0 0 0 0 0 0 0 0 0 0 0 0 0 0 0 0 0 0 0 0 0 0 0 0 0 0 0 0 0 0 0 0 0
0 0 0 0 0 0 0 0 0 0 0 0 0 0 0 0 0 0 0 0 0 0 0 0 0 0 0 0 0 0 0 0 0 0 0 0 0 0 0 0 0 0 0 0
0 0 0 0 0 0 0 0 0 0 0 0 0 0 0 0 0 0 0 0 0 0 0 0 0 0 0 0 0 0 0 0 0 0 0 0 0 0 0 0 0 0 0 0
0 0 0 0 0 0 0 0 0 0 0 0 0 0 0 0 0 0 0 0 0 0 0 0 0 0 0 0 0 0 0 0 0 0 0 0 0 0 0 0 0 0 0 0
0 0 0 0 0 0 0 0 0 0 0 0 0 0 0 0 0 0 0 0 0 0 0 0 0 0 0 0 0 0 0 0 0 0 0 0 0 0 0 0 0 0 0 0
0 0 0 0 0 0 0 0 0 0 0 0 0 0 0 0 0 0 0 0 0 0 0 0 0 0 0 0 0 0 0 0 0 0 0 0 0 0 0 0 0 0 0 0
0 0 0 0 0 0 0 0 0 0 0 0 0 0 0 0 0 0 0 0 0 0 0 0 0 0 0 0 0 0 0 0 0 0 0 0 0 0 0 0 0 0 0 0
0 0 0 0 0 0 0 0 0 0 0 0 0 0 0 0 0 0 0 0 0 0 0 0 0 0 0 0 0 0 0 0 0 0 0 0 0 0 0 0 0 0 0 0
0 0 0 0 0 0 0 0 0 0 0 0 0 0 0 0 0 0 -0 -0 -0 0 0 0 0 -0 0 0 -0 0 0 0 0 0 0 0 0 0 0 0 0 0 0 0
0 0 0 0 0 0 0 0 0 0 0 0 0 0 0 0 0 0 0 0 0 0 0 -0 -0 -0 -0 0 0 0 0 0 0 0 0 0 0 0 0 0 0 0 0 0
0 0 0 0 0 0 0 0 0 0 0 0 0 0 -0 0 0 0 0 -0 -0 -0 -0 -0 -0 -0 -0 -0 -0 0 0 0 0 0 0 0 0 0 0 0 0 0 0 0
0 0 0 0 0 0 0 0 0 0 0 0 0 0 0 0 -0 -0 -0 0 0 -0 0 0 0 0 0 -0 0 0 0 0 0 0 0 0 0 0 0 0 0 0 0 0
0 0 0 0 0 0 0 0 0 0 0 0 0 0 0 0 0 0 0 0 0 0 0 0 0 0 0 0 0 0 0 0 0 0 0 0 0 0 0 0 0 0 0 0
0 0 0 0 0 0 0 0 0 0 0 0 0 0 0 0 0 0 0 0 0 0 0 0 0 0 0 0 0 0 0 0 0 0 0 0 0 0 0 0 0 0 0 0
0 0 0 0 0 0 0 0 0 0 0 0 0 0 0 0 0 0 0 0 0 0 0 0 0 0 0 0 0 0 -0 0 0 0 0 0 0 0 0 0 0 0 0 0
Wind_Speed_500mb
14 22 22 23 15 8 5 6 9 5 7 11 9 18 13 31 35 35 35 36 37 37 32 32 35 40 45 46 46 45 45 41 37 32 28 24 20 18 17 15 13 12 12 12
6 12 5 13 13 12 9 8 11 10 6 11 13 35 27 31 45 47 43 43 43 39 39 42 44 44 44 43 42 42 38 36 34 31 27 25 23 21 18 16 14 11 9 9
11 6 2 2 13 20 11 10 11 10 19 4 27 11 7 18 38 36 49 45 44 48 48 49 53 54 51 54 54 52 48 45 41 36 34 32 30 27 25 21 17 11 8 4
10 2 2 4 6 7 11 12 18 20 23 6 16 7 8 15 24 42 53 55 56 54 52 52 59 62 62 58 54 53 53 51 47 45 42 39 33 33 29 27 23 18 14 9
4 3 1 3 3 4 4 8 10 15 12 10 7 4 3 2 17 41 56 65 64 61 65 68 67 66 63 60 60 58 57 56 52 51 48 45 44 41 38 35 30 26 22 19
7 4 0 2 3 4 6 11 8 4 5 4 8 10 8 10 11 7 35 57 63 63 69 70 69 66 68 66 67 67 65 62 61 58 55 53 51 49 47 43 40 37 33 29
7 5 4 2 5 6 4 7 6 5 3 5 4 10 21 15 15 11 9 37 52 60 68 76 78 78 76 78 77 75 74 73 68 65 64 61 58 55 52 49 47 45 39 36
3 5 8 3 3 2 5 2 3 10 9 15 4 12 5 6 9 16 28 22 28 55 71 82 85 84 82 82 82 83 83 81 77 76 72 68 64 63 60 56 53 50 46 41
7 7 5 3 4 5 6 3 6 9 3 6 5 13 29 5 25 32 33 23 38 46 70 83 86 89 88 87 89 88 87 84 82 81 76 75 72 71 68 63 59 56 52 49
2 7 3 3 3 6 5 11 3 2 8 11 11 10 16 10 10 4 14 39 36 46 51 71 86 94 95 93 90 90 90 89 85 84 84 83 80 77 73 69 68 64 57 53
5 3 5 4 19 16 10 7 3 5 5 10 12 7 16 19 14 9 11 20 33 41 52 65 74 90 95 97 99 99 97 96 94 92 91 91 88 85 80 78 73 69 62 59
11 7 12 15 5 5 3 7 17 9 11 9 9 23 14 20 10 15 20 19 18 27 39 54 68 74 89 101 105 109 108 106 104 99 98 97 93 90 88 88 82 73 68 64
10 7 10 9 2 4 11 12 10 6 1 18 14 24 10 7 16 32 37 30 42 59 56 63 62 76 84 91 105 113 117 118 115 111 108 103 102 101 97 95 87 78 73 68
15 6 15 38 33 7 14 17 24 19 12 29 38 81 19 30 25 33 49 63 83 87 76 73 73 74 82 90 100 108 119 123 124 124 123 117 114 109 103 98 89 83 77 72
5 30 17 40 25 14 42 41 28 35 40 36 73 67 22 36 35 57 65 67 68 90 81 84 82 87 95 100 100 107 114 120 126 135 134 130 123 115 107 101 93 85 80 76
0 14 5 50 6 16 43 42 39 49 52 51 67 84 42 74 83 80 72 63 66 86 87 84 85 88 82 86 96 106 110 119 124 132 139 136 132 126 118 107 96 86 80 77
8 4 3 36 5 9 37 45 44 51 50 44 53 66 47 54 63 80 58 60 79 78 82 92 83 75 73 73 73 86 99 101 118 129 131 133 136 135 126 114 100 90 81 76
24 13 9 26 24 33 37 9 13 18 27 27 51 53 58 71 88 56 72 80 71 85 68 57 57 61 65 69 68 73 79 89 97 109 121 127 128 131 129 120 106 93 82 75
43 25 12 12 28 36 56 32 25 7 70 26 37 51 60 64 57 49 59 49 39 43 63 65 62 64 72 71 64 63 68 78 87 97 105 113 120 119 122 121 108 93 82 73
2 16 18 15 16 25 36 7 9 4 44 24 26 21 22 19 24 24 28 46 58 82 82 90 93 87 85 80 73 60 64 69 80 88 92 98 105 111 113 111 103 90 79 70
9 5 29 34 28 22 25 38 18 27 46 10 10 34 44 19 35 51 47 74 98 98 108 108 90 84 80 75 73 72 63 69 68 69 79 86 94 97 97 95 91 86 77 67
30 23 18 13 19 34 45 24 35 54 70 56 48 52 43 44 64 81 74 64 66 85 103 105 102 100 81 72 68 71 66 70 59 63 65 70 75 80 82 82 87 80 71 66
37 37 37 30 34 23 10 35 32 41 47 54 64 73 73 70 70 79 84 80 86 89 100 111 90 100 96 81 76 79 77 69 62 57 58 61 65 66 74 83 82 74 68 62
39 76 48 55 57 65 86 92 89 93 103 105 98 92 75 77 83 72 88 83 82 85 94 91 95 91 99 87 78 79 79 66 65 61 58 60 72 78 81 78 72 69 65 59
54 52 56 62 63 82 102 103 95 83 91 93 96 75 66 65 73 76 81 90 82 81 86 85 96 110 100 92 89 88 77 67 63 61 57 64 80 88 85 75 68 63 54 45
69 57 40 46 74 80 79 93 110 95 84 90 87 89 82 73 65 86 93 94 94 86 90 95 100 115 99 97 98 79 63 59 62 69 71 85 93 89 85 81 71 54 43 43
Wind_Direction_500mb
34 52 31 11 23 11 30 10 349 323 343 306 265 278 236 201 211 216 212 209 209 209 205 207 203 201 201 200 197 194 193 193 194 193 186 178 170 166 172 170 153 138 123 106
115 73 19 321 335 346 349 325 355 272 288 308 309 287 264 208 219 216 215 215 213 207 205 205 207 207 209 207 205 201 200 197 195 193 194 193 192 192 185 182 174 159 139 114
65 94 328 90 343 344 354 360 345 310 312 241 313 256 218 217 222 222 226 224 221 214 209 207 209 210 208 206 204 205 205 204 202 200 201 201 202 203 199 201 200 193 192 162
73 90 12 359 69 16 329 356 320 319 330 328 1 299 250 210 227 224 227 225 224 218 216 215 214 213 212 210 208 207 208 208 207 208 208 209 212 215 212 213 212 213 219 222
85 147 55 56 56 326 265 323 316 317 321 302 16 270 216 259 244 234 225 224 223 218 217 217 217 218 217 214 213 212 213 212 210 212 211 211 212 215 218 221 222 226 230 235
93 136 269 71 158 187 299 285 270 282 306 276 357 344 273 201 221 251 220 221 220 217 219 222 223 221 218 217 218 218 217 217 216 216 216 217 218 219 221 223 226 229 231 235
157 154 131 218 218 181 259 299 330 323 329 306 21 291 262 275 246 252 242 223 220 220 221 222 223 223 221 219 219 220 220 221 221 221 221 222 223 224 227 229 229 231 235 239
250 261 180 167 332 76 42 52 151 296 315 309 61 245 257 278 304 261 259 242 226 221 223 226 228 226 225 224 223 224 224 225 223 225 226 226 226 228 230 232 233 235 238 241
187 237 105 22 58 321 133 215 69 102 98 266 233 268 280 266 258 254 252 245 235 228 225 228 229 230 231 229 229 229 230 230 229 230 230 230 231 231 233 235 237 238 240 241
291 270 26 83 145 74 248 144 145 136 276 282 231 240 245 277 261 217 248 237 242 240 238 234 233 234 234 234 234 235 235 236 235 234 234 234 235 235 235 236 237 239 241 242
142 250 117 181 205 189 157 194 221 323 232 244 299 240 222 231 255 238 266 247 242 254 255 249 244 240 238 238 237 237 237 237 236 235 235 236 236 236 237 238 238 239 241 242
186 194 250 249 85 359 299 204 178 218 209 257 303 256 210 219 247 225 261 255 282 291 287 269 257 250 244 240 239 238 238 237 238 237 236 236 236 237 237 238 238 238 239 242
178 205 292 257 160 349 221 201 203 94 23 208 251 263 42 302 237 253 260 260 289 291 289 283 267 257 252 248 244 242 241 241 241 238 237 236 236 236 236 238 238 237 239 241
160 195 233 259 271 104 236 196 209 202 221 263 234 269 233 265 264 267 274 283 289 284 282 273 268 270 268 260 253 248 245 244 243 241 239 237 237 237 237 237 237 237 239 240
244 261 234 261 284 286 279 268 208 208 231 240 268 262 264 255 265 269 271 270 276 282 282 282 280 277 277 274 269 258 252 248 246 243 242 240 239 238 237 237 236 237 238 240
91 275 344 286 255 257 275 272 258 235 244 253 260 267 278 283 284 280 276 278 272 280 287 288 291 292 288 285 284 277 265 259 250 246 245 244 240 238 237 236 235 235 236 238
200 222 204 266 95 308 271 266 255 251 243 240 251 260 282 276 272 273 288 272 273 280 289 298 304 308 303 301 298 287 281 276 261 253 249 246 243 240 238 235 233 233 233 236
228 214 239 269 283 253 262 322 277 274 266 253 252 261 261 258 269 287 293 282 285 294 310 316 319 318 319 312 303 299 288 278 268 261 254 248 244 242 239 235 232 230 230 234
224 220 236 237 238 268 288 279 257 228 281 256 246 253 265 275 289 284 292 298 307 322 323 320 324 324 326 328 318 305 292 281 273 264 257 250 245 242 238 234 229 225 226 229
212 240 225 217 236 250 268 15 112 259 271 221 245 264 274 296 295 304 309 325 319 316 315 317 319 314 316 317 317 316 312 286 275 269 264 256 247 240 237 232 224 221 223 225
152 189 219 234 251 254 259 264 280 265 272 166 297 304 308 265 270 295 299 309 314 320 320 322 320 318 320 314 301 302 307 314 289 276 267 257 248 240 235 228 218 216 215 215
269 260 234 228 254 267 216 236 222 251 270 289 300 298 291 292 298 298 300 304 305 308 311 313 314 315 317 313 303 302 300 311 299 277 268 258 247 236 227 215 208 207 207 208
247 243 256 238 253 276 252 230 251 268 291 291 295 293 289 292 291 293 295 302 306 306 308 307 303 306 306 302 303 303 307 299 286 274 264 251 235 224 212 203 200 196 199 205
273 272 267 267 260 265 270 271 275 282 284 286 289 284 284 290 292 301 306 306 302 298 298 303 301 304 307 298 294 298 301 295 283 267 250 235 218 198 194 192 194 195 198 202
270 284 282 278 279 286 282 288 291 291 288 281 282 285 291 297 307 302 297 298 294 295 297 297 297 303 302 292 294 296 295 282 269 253 233 211 198 188 181 183 187 192 196 207
258 259 259 270 282 282 281 284 292 296 290 287 287 286 292 299 303 290 290 289 289 291 291 290 297 294 294 298 286 288 299 286 263 242 214 196 188 183 179 180 176 181 197 212
Wind_Speed_850mb
14 22 22 23 15 8 5 6 9 5 7 11 9 18 13 31 35 35 35 36 37 37 32 32 35 40 45 46 46 45 45 41 37 32 28 24 20 18 17 15 13 12 12 12
6 12 5 13 13 12 9 8 11 10 6 11 13 35 27 31 45 47 43 43 43 39 39 42 44 44 44 43 42 42 38 36 34 31 27 25 23 21 18 16 14 11 9 9
11 6 2 2 13 20 11 10 11 10 19 4 27 11 7 18 38 36 49 45 44 48 48 49 53 54 51 54 54 52 48 45 41 36 34 32 30 27 25 21 17 11 8 4
10 2 2 4 6 7 11 12 18 20 23 6 16 7 8 15 24 42 53 55 56 54 52 52 59 62 62 58 54 53 53 51 47 45 42 39 33 33 29 27 23 18 14 9
4 3 1 3 3 4 4 8 10 15 12 10 7 4 3 2 17 41 56 65 64 61 65 68 67 66 63 60 60 58 57 56 52 51 48 45 44 41 38 35 30 26 22 19
7 4 0 2 3 4 6 11 8 4 5 4 8 10 8 10 11 7 35 57 63 63 69 70 69 66 68 66 67 67 65 62 61 58 55 53 51 49 47 43 40 37 33 29
7 5 4 2 5 6 4 7 6 5 3 5 4 10 21 15 15 11 9 37 52 60 68 76 78 78 76 78 77 75 74 73 68 65 64 61 58 55 52 49 47 45 39 36
3 5 8 3 3 2 5 2 3 10 9 15 4 12 5 6 9 16 28 22 28 55 71 82 85 84 82 82 82 83 83 81 77 76 72 68 64 63 60 56 53 50 46 41
7 7 5 3 4 5 6 3 6 9 3 6 5 13 29 5 25 32 33 23 38 46 70 83 86 89 88 87 89 88 87 84 82 81 76 75 72 71 68 63 59 56 52 49
2 7 3 3 3 6 5 11 3 2 8 11 11 10 16 10 10 4 14 39 36 46 51 71 86 94 95 93 90 90 90 89 85 84 84 83 80 77 73 69 68 64 57 53
5 3 5 4 19 16 10 7 3 5 5 10 12 7 16 19 14 9 11 20 33 41 52 65 74 90 95 97 99 99 97 96 94 92 91 91 88 85 80 78 73 69 62 59
11 7 12 15 5 5 3 7 17 9 11 9 9 23 14 20 10 15 20 19 18 27 39 54 68 74 89 101 105 109 108 106 104 99 98 97 93 90 88 88 82 73 68 64
10 7 10 9 2 4 11 12 10 6 1 18 14 24 10 7 16 32 37 30 42 59 56 63 62 76 84 91 105 113 117 118 115 111 108 103 102 101 97 95 87 78 73 68
15 6 15 38 33 7 14 17 24 19 12 29 38 81 19 30 25 33 49 63 83 87 76 73 73 74 82 90 100 108 119 123 124 124 123 117 114 109 103 98 89 83 77 72
5 30 17 40 25 14 42 41 28 35 40 36 73 67 22 36 35 57 65 67 68 90 81 84 82 87 95 100 100 107 114 120 126 135 134 130 123 115 107 101 93 85 80 76
0 14 5 50 6 16 43 42 39 49 52 51 67 84 42 74 83 80 72 63 66 86 87 84 85 88 82 86 96 106 110 119 124 132 139 136 132 126 118 107 96 86 80 77
8 4 3 36 5 9 37 45 44 51 50 44 53 66 47 54 63 80 58 60 79 78 82 92 83 75 73 73 73 86 99 101 118 129 131 133 136 135 126 114 100 90 81 76
24 13 9 26 24 33 37 9 13 18 27 27 51 53 58 71 88 56 72 80 71 85 68 57 57 61 65 69 68 73 79 89 97 109 121 127 128 131 129 120 106 93 82 75
43 25 12 12 28 36 56 32 25 7 70 26 37 51 60 64 57 49 59 49 39 43 63 65 62 64 72 71 64 63 68 78 87 97 105 113 120 119 122 121 108 93 82 73
2 16 18 15 16 25 36 7 9 4 44 24 26 21 22 19 24 24 28 46 58 82 82 90 93 87 85 80 73 60 64 69 80 88 92 98 105 111 113 111 103 90 79 70
9 5 29 34 28 22 25 38 18 27 46 10 10 34 44 19 35 51 47 74 98 98 108 108 90 84 80 75 73 72 63 69 68 69 79 86 94 97 97 95 91 86 77 67
30 23 18 13 19 34 45 24 35 54 70 56 48 52 43 44 64 81 74 64 66 85 103 105 102 100 81 72 68 71 66 70 59 63 65 70 75 80 82 82 87 80 71 66
37 37 37 30 34 23 10 35 32 41 47 54 64 73 73 70 70 79 84 80 86 89 100 111 90 100 96 81 76 79 77 69 62 57 58 61 65 66 74 83 82 74 68 62
39 76 48 55 57 65 86 92 89 93 103 105 98 92 75 77 83 72 88 83 82 85 94 91 95 91 99 87 78 79 79 66 65 61 58 60 72 78 81 78 72 69 65 59
54 52 56 62 63 82 102 103 95 83 91 93 96 75 66 65 73 76 81 90 82 81 86 85 96 110 100 92 89 88 77 67 63 61 57 64 80 88 85 75 68 63 54 45
69 57 40 46 74 80 79 93 110 95 84 90 87 89 82 73 65 86 93 94 94 86 90 95 100 115 99 97 98 79 63 59 62 69 71 85 93 89 85 81 71 54 43 43
Wind_Direction_850mb
34 52 31 11 23 11 30 10 349 323 343 306 265 278 236 201 211 216 212 209 209 209 205 207 203 201 201 200 197 194 193 193 194 193 186 178 170 166 172 170 153 138 123 106
115 73 19 321 335 346 349 325 355 272 288 308 309 287 264 208 219 216 215 215 213 207 205 205 207 207 209 207 205 201 200 197 195 193 194 193 192 192 185 182 174 159 139 114
65 94 328 90 343 344 354 360 345 310 312 241 313 256 218 217 222 222 226 224 221 214 209 207 209 210 208 206 204 205 205 204 202 200 201 201 202 203 199 201 200 193 192 162
73 90 12 359 69 16 329 356 320 319 330 328 1 299 250 210 227 224 227 225 224 218 216 215 214 213 212 210 208 207 208 208 207 208 208 209 212 215 212 213 212 213 219 222
85 147 55 56 56 326 265 323 316 317 321 302 16 270 216 259 244 234 225 224 223 218 217 217 217 218 217 214 213 212 213 212 210 212 211 211 212 215 218 221 222 226 230 235
93 136 269 71 158 187 299 285 270 282 306 276 357 344 273 201 221 251 220 221 220 217 219 222 223 221 218 217 218 218 217 217 216 216 216 217 218 219 221 223 226 229 231 235
157 154 131 218 218 181 259 299 330 323 329 306 21 291 262 275 246 252 242 223 220 220 221 222 223 223 221 219 219 220 220 221 221 221 221 222 223 224 227 229 229 231 235 239
250 261 180 167 332 76 42 52 151 296 315 309 61 245 257 278 304 261 259 242 226 221 223 226 228 226 225 224 223 224 224 225 223 225 226 226 226 228 230 232 233 235 238 241
187 237 105 22 58 321 133 215 69 102 98 266 233 268 280 266 258 254 252 245 235 228 225 228 229 230 231 229 229 229 230 230 229 230 230 230 231 231 233 235 237 238 240 241
291 270 26 83 145 74 248 144 145 136 276 282 231 240 245 277 261 217 248 237 242 240 238 234 233 234 234 234 234 235 235 236 235 234 234 234 235 235 235 236 237 239 241 242
142 250 117 181 205 189 157 194 221 323 232 244 299 240 222 231 255 238 266 247 242 254 255 249 244 240 238 238 237 237 237 237 236 235 235 236 236 236 237 238 238 239 241 242
186 194 250 249 85 359 299 204 178 218 209 257 303 256 210 219 247 225 261 255 282 291 287 269 257 250 244 240 239 238 238 237 238 237 236 236 236 237 237 238 238 238 239 242
178 205 292 257 160 349 221 201 203 94 23 208 251 263 42 302 237 253 260 260 289 291 289 283 267 257 252 248 244 242 241 241 241 238 237 236 236 236 236 238 238 237 239 241
160 195 233 259 271 104 236 196 209 202 221 263 234 269 233 265 264 267 274 283 289 284 282 273 268 270 268 260 253 248 245 244 243 241 239 237 237 237 237 237 237 237 239 240
244 261 234 261 284 286 279 268 208 208 231 240 268 262 264 255 265 269 271 270 276 282 282 282 280 277 277 274 269 258 252 248 246 243 242 240 239 238 237 237 236 237 238 240
91 275 344 286 255 257 275 272 258 235 244 253 260 267 278 283 284 280 276 278 272 280 287 288 291 292 288 285 284 277 265 259 250 246 245 244 240 238 237 236 235 235 236 238
200 222 204 266 95 308 271 266 255 251 243 240 251 260 282 276 272 273 288 272 273 280 289 298 304 308 303 301 298 287 281 276 261 253 249 246 243 240 238 235 233 233 233 236
228 214 239 269 283 253 262 322 277 274 266 253 252 261 261 258 269 287 293 282 285 294 310 316 319 318 319 312 303 299 288 278 268 261 254 248 244 242 239 235 232 230 230 234
224 220 236 237 238 268 288 279 257 228 281 256 246 253 265 275 289 284 292 298 307 322 323 320 324 324 326 328 318 305 292 281 273 264 257 250 245 242 238 234 229 225 226 229
212 240 225 217 236 250 268 15 112 259 271 221 245 264 274 296 295 304 309 325 319 316 315 317 319 314 316 317 317 316 312 286 275 269 264 256 247 240 237 232 224 221 223 225
152 189 219 234 251 254 259 264 280 265 272 166 297 304 308 265 270 295 299 309 314 320 320 322 320 318 320 314 301 302 307 314 289 276 267 257 248 240 235 228 218 216 215 215
269 260 234 228 254 267 216 236 222 251 270 289 300 298 291 292 298 298 300 304 305 308 311 313 314 315 317 313 303 302 300 311 299 277 268 258 247 236 227 215 208 207 207 208
247 243 256 238 253 276 252 230 251 268 291 291 295 293 289 292 291 293 295 302 306 306 308 307 303 306 306 302 303 303 307 299 286 274 264 251 235 224 212 203 200 196 199 205
273 272 267 267 260 265 270 271 275 282 284 286 289 284 284 290 292 301 306 306 302 298 298 303 301 304 307 298 294 298 301 295 283 267 250 235 218 198 194 192 194 195 198 202
270 284 282 278 279 286 282 288 291 291 288 281 282 285 291 297 307 302 297 298 294 295 297 297 297 303 302 292 294 296 295 282 269 253 233 211 198 188 181 183 187 192 196 207
258 259 259 270 282 282 281 284 292 296 290 287 287 286 292 299 303 290 290 289 289 291 291 290 297 294 294 298 286 288 299 286 263 242 214 196 188 183 179 180 176 181 197 212